owner,sensor,date,latitude,longitude,vertical_datum,wind_speed,wind_to_direction,wind_speed_of_gust,qcFlag 
TCOON,ioos:station:TCOON:031:1,2017-05-01T00:00:00Z,28.4073,-96.7122,0.0,1.1,326.0,2.2,'11111222,11111222,11111222' 
TCOON,ioos:station:TCOON:031:1,2017-05-01T00:06:00Z,28.4073,-96.7122,0.0,1.2,309.0,2.3,'11111222,11111222,11111222' 
TCOON,ioos:station:TCOON:031:1,2017-05-01T00:12:00Z,28.4073,-96.7122,0.0,1.2,304.0,1.4,'11111222,11111222,11111222' 
TCOON,ioos:station:TCOON:031:1,2017-05-01T00:18:00Z,28.4073,-96.7122,0.0,1.2,304.0,1.4,'1111122,1111122,1111122' 
TCOON,ioos:station:TCOON:031:1,2017-05-01T00:24:00Z,28.4073,-96.7122,0.0,0.9,315.0,1.3,'11111222,11111222,11111222' 
TCOON,ioos:station:TCOON:031:1,2017-05-01T00:30:00Z,28.4073,-96.7122,0.0,0.5,317.0,0.9,'11111222,11111222,11111222' 
TCOON,ioos:station:TCOON:031:1,2017-05-01T00:36:00Z,28.4073,-96.7122,0.0,0.3,343.0,0.6,'11111222,11111222,11111222' 
TCOON,ioos:station:TCOON:031:1,2017-05-01T00:42:00Z,28.4073,-96.7122,0.0,0.0,343.0,0.5,'11111222,11111222,11111222' 
TCOON,ioos:station:TCOON:031:1,2017-05-01T00:48:00Z,28.4073,-96.7122,0.0,0.0,351.0,0.3,'11111222,11111222,11111222' 
TCOON,ioos:station:TCOON:031:1,2017-05-01T00:54:00Z,28.4073,-96.7122,0.0,0.7,74.0,0.8,'11111222,11111222,11111222' 
TCOON,ioos:station:TCOON:031:1,2017-05-01T01:00:00Z,28.4073,-96.7122,0.0,1.0,75.0,1.2,'11111222,11111222,11111222' 
TCOON,ioos:station:TCOON:031:1,2017-05-01T01:06:00Z,28.4073,-96.7122,0.0,0.8,78.0,1.3,'11111222,11111222,11111222' 
TCOON,ioos:station:TCOON:031:1,2017-05-01T01:12:00Z,28.4073,-96.7122,0.0,1.4,82.0,1.6,'11111222,11111222,11111222' 
TCOON,ioos:station:TCOON:031:1,2017-05-01T01:18:00Z,28.4073,-96.7122,0.0,1.4,82.0,1.6,'1111122,1111122,1111122' 
TCOON,ioos:station:TCOON:031:1,2017-05-01T01:24:00Z,28.4073,-96.7122,0.0,1.1,79.0,1.6,'11111222,11111222,11111222' 
TCOON,ioos:station:TCOON:031:1,2017-05-01T01:30:00Z,28.4073,-96.7122,0.0,0.7,67.0,1.2,'11111222,11111222,11111222' 
TCOON,ioos:station:TCOON:031:1,2017-05-01T01:36:00Z,28.4073,-96.7122,0.0,0.7,79.0,1.3,'11111222,11111222,11111222' 
TCOON,ioos:station:TCOON:031:1,2017-05-01T01:42:00Z,28.4073,-96.7122,0.0,2.4,82.0,3.0,'11111222,11111222,11111222' 
TCOON,ioos:station:TCOON:031:1,2017-05-01T01:48:00Z,28.4073,-96.7122,0.0,2.5,91.0,3.3,'11111222,11111222,11111222' 
TCOON,ioos:station:TCOON:031:1,2017-05-01T01:54:00Z,28.4073,-96.7122,0.0,2.3,90.0,3.1,'11111222,11111222,11111222' 
TCOON,ioos:station:TCOON:031:1,2017-05-01T02:00:00Z,28.4073,-96.7122,0.0,1.8,87.0,2.7,'11111222,11111222,11111222' 
TCOON,ioos:station:TCOON:031:1,2017-05-01T02:06:00Z,28.4073,-96.7122,0.0,1.6,78.0,2.5,'11111222,11111222,11111222' 
TCOON,ioos:station:TCOON:031:1,2017-05-01T02:12:00Z,28.4073,-96.7122,0.0,1.3,63.0,2.1,'11111222,11111222,11111222' 
TCOON,ioos:station:TCOON:031:1,2017-05-01T02:18:00Z,28.4073,-96.7122,0.0,1.3,63.0,2.1,'1111122,1111122,1111122' 
TCOON,ioos:station:TCOON:031:1,2017-05-01T02:24:00Z,28.4073,-96.7122,0.0,1.9,71.0,2.3,'11111222,11111222,11111222' 
TCOON,ioos:station:TCOON:031:1,2017-05-01T02:30:00Z,28.4073,-96.7122,0.0,1.7,62.0,2.5,'11111222,11111222,11111222' 
TCOON,ioos:station:TCOON:031:1,2017-05-01T02:36:00Z,28.4073,-96.7122,0.0,1.8,49.0,2.3,'11111222,11111222,11111222' 
TCOON,ioos:station:TCOON:031:1,2017-05-01T02:42:00Z,28.4073,-96.7122,0.0,1.5,49.0,2.1,'11111222,11111222,11111222' 
TCOON,ioos:station:TCOON:031:1,2017-05-01T02:48:00Z,28.4073,-96.7122,0.0,2.0,51.0,2.5,'11111222,11111222,11111222' 
TCOON,ioos:station:TCOON:031:1,2017-05-01T02:54:00Z,28.4073,-96.7122,0.0,2.0,52.0,2.5,'11111222,11111222,11111222' 
TCOON,ioos:station:TCOON:031:1,2017-05-01T03:00:00Z,28.4073,-96.7122,0.0,2.3,51.0,2.7,'11111222,11111222,11111222' 
TCOON,ioos:station:TCOON:031:1,2017-05-01T03:06:00Z,28.4073,-96.7122,0.0,2.0,41.0,2.9,'11111222,11111222,11111222' 
TCOON,ioos:station:TCOON:031:1,2017-05-01T03:12:00Z,28.4073,-96.7122,0.0,1.9,48.0,2.7,'11111222,11111222,11111222' 
TCOON,ioos:station:TCOON:031:1,2017-05-01T03:18:00Z,28.4073,-96.7122,0.0,1.9,48.0,2.7,'1111122,1111122,1111122' 
TCOON,ioos:station:TCOON:031:1,2017-05-01T03:24:00Z,28.4073,-96.7122,0.0,2.0,42.0,2.4,'11111222,11111222,11111222' 
TCOON,ioos:station:TCOON:031:1,2017-05-01T03:30:00Z,28.4073,-96.7122,0.0,1.7,47.0,2.9,'11111222,11111222,11111222' 
TCOON,ioos:station:TCOON:031:1,2017-05-01T03:36:00Z,28.4073,-96.7122,0.0,2.2,55.0,2.7,'11111222,11111222,11111222' 
TCOON,ioos:station:TCOON:031:1,2017-05-01T03:42:00Z,28.4073,-96.7122,0.0,2.4,62.0,3.1,'11111222,11111222,11111222' 
TCOON,ioos:station:TCOON:031:1,2017-05-01T03:48:00Z,28.4073,-96.7122,0.0,1.7,65.0,3.3,'11111222,11111222,11111222' 
TCOON,ioos:station:TCOON:031:1,2017-05-01T03:54:00Z,28.4073,-96.7122,0.0,1.6,71.0,3.0,'11111222,11111222,11111222' 
TCOON,ioos:station:TCOON:031:1,2017-05-01T04:00:00Z,28.4073,-96.7122,0.0,1.4,66.0,2.4,'11111222,11111222,11111222' 
TCOON,ioos:station:TCOON:031:1,2017-05-01T04:06:00Z,28.4073,-96.7122,0.0,1.8,64.0,2.6,'11111222,11111222,11111222' 
TCOON,ioos:station:TCOON:031:1,2017-05-01T04:12:00Z,28.4073,-96.7122,0.0,1.8,70.0,2.6,'11111222,11111222,11111222' 
TCOON,ioos:station:TCOON:031:1,2017-05-01T04:18:00Z,28.4073,-96.7122,0.0,1.8,70.0,2.6,'11111222,11111222,11111222' 
TCOON,ioos:station:TCOON:031:1,2017-05-01T04:24:00Z,28.4073,-96.7122,0.0,1.8,70.0,2.6,'1111122,1111122,1111122' 
TCOON,ioos:station:TCOON:031:1,2017-05-01T04:30:00Z,28.4073,-96.7122,0.0,2.0,77.0,2.6,'11111222,11111222,11111222' 
TCOON,ioos:station:TCOON:031:1,2017-05-01T04:36:00Z,28.4073,-96.7122,0.0,1.8,74.0,2.9,'11111222,11111222,11111222' 
TCOON,ioos:station:TCOON:031:1,2017-05-01T04:42:00Z,28.4073,-96.7122,0.0,1.8,81.0,2.5,'11111222,11111222,11111222' 
TCOON,ioos:station:TCOON:031:1,2017-05-01T04:48:00Z,28.4073,-96.7122,0.0,1.4,73.0,2.3,'11111222,11111222,11111222' 
TCOON,ioos:station:TCOON:031:1,2017-05-01T04:54:00Z,28.4073,-96.7122,0.0,1.7,73.0,2.3,'11111222,11111222,11111222' 
TCOON,ioos:station:TCOON:031:1,2017-05-01T05:00:00Z,28.4073,-96.7122,0.0,1.3,73.0,2.4,'11111222,11111222,11111222' 
TCOON,ioos:station:TCOON:031:1,2017-05-01T05:06:00Z,28.4073,-96.7122,0.0,1.1,67.0,1.9,'11111222,11111222,11111222' 
TCOON,ioos:station:TCOON:031:1,2017-05-01T05:12:00Z,28.4073,-96.7122,0.0,1.1,78.0,1.7,'11111222,11111222,11111222' 
TCOON,ioos:station:TCOON:031:1,2017-05-01T05:18:00Z,28.4073,-96.7122,0.0,1.1,78.0,1.7,'1111122,1111122,1111122' 
TCOON,ioos:station:TCOON:031:1,2017-05-01T05:24:00Z,28.4073,-96.7122,0.0,1.5,85.0,1.9,'11111222,11111222,11111222' 
TCOON,ioos:station:TCOON:031:1,2017-05-01T05:30:00Z,28.4073,-96.7122,0.0,1.8,86.0,2.2,'11111222,11111222,11111222' 
TCOON,ioos:station:TCOON:031:1,2017-05-01T05:36:00Z,28.4073,-96.7122,0.0,1.9,89.0,2.6,'11111222,11111222,11111222' 
TCOON,ioos:station:TCOON:031:1,2017-05-01T05:42:00Z,28.4073,-96.7122,0.0,1.5,84.0,2.9,'11111222,11111222,11111222' 
TCOON,ioos:station:TCOON:031:1,2017-05-01T05:48:00Z,28.4073,-96.7122,0.0,1.5,75.0,2.2,'11111222,11111222,11111222' 
TCOON,ioos:station:TCOON:031:1,2017-05-01T05:54:00Z,28.4073,-96.7122,0.0,1.3,83.0,1.9,'11111222,11111222,11111222' 
TCOON,ioos:station:TCOON:031:1,2017-05-01T06:00:00Z,28.4073,-96.7122,0.0,1.4,71.0,2.0,'11111222,11111222,11111222' 
TCOON,ioos:station:TCOON:031:1,2017-05-01T06:06:00Z,28.4073,-96.7122,0.0,1.6,81.0,2.1,'11111222,11111222,11111222' 
TCOON,ioos:station:TCOON:031:1,2017-05-01T06:12:00Z,28.4073,-96.7122,0.0,1.7,74.0,2.6,'11111222,11111222,11111222' 
TCOON,ioos:station:TCOON:031:1,2017-05-01T06:18:00Z,28.4073,-96.7122,0.0,1.7,74.0,2.6,'1111122,1111122,1111122' 
TCOON,ioos:station:TCOON:031:1,2017-05-01T06:24:00Z,28.4073,-96.7122,0.0,2.0,77.0,2.6,'11111222,11111222,11111222' 
TCOON,ioos:station:TCOON:031:1,2017-05-01T06:30:00Z,28.4073,-96.7122,0.0,2.1,84.0,2.8,'11111222,11111222,11111222' 
TCOON,ioos:station:TCOON:031:1,2017-05-01T06:36:00Z,28.4073,-96.7122,0.0,1.7,83.0,2.7,'11111222,11111222,11111222' 
TCOON,ioos:station:TCOON:031:1,2017-05-01T06:42:00Z,28.4073,-96.7122,0.0,1.8,92.0,2.3,'11111222,11111222,11111222' 
TCOON,ioos:station:TCOON:031:1,2017-05-01T06:48:00Z,28.4073,-96.7122,0.0,1.4,83.0,2.2,'11111222,11111222,11111222' 
TCOON,ioos:station:TCOON:031:1,2017-05-01T06:54:00Z,28.4073,-96.7122,0.0,1.3,74.0,1.9,'11111222,11111222,11111222' 
TCOON,ioos:station:TCOON:031:1,2017-05-01T07:00:00Z,28.4073,-96.7122,0.0,1.3,80.0,2.0,'11111222,11111222,11111222' 
TCOON,ioos:station:TCOON:031:1,2017-05-01T07:06:00Z,28.4073,-96.7122,0.0,1.5,75.0,2.0,'11111222,11111222,11111222' 
TCOON,ioos:station:TCOON:031:1,2017-05-01T07:12:00Z,28.4073,-96.7122,0.0,1.3,84.0,1.8,'11111222,11111222,11111222' 
TCOON,ioos:station:TCOON:031:1,2017-05-01T07:18:00Z,28.4073,-96.7122,0.0,1.3,84.0,1.8,'1111122,1111122,1111122' 
TCOON,ioos:station:TCOON:031:1,2017-05-01T07:24:00Z,28.4073,-96.7122,0.0,1.4,81.0,1.9,'11111222,11111222,11111222' 
TCOON,ioos:station:TCOON:031:1,2017-05-01T07:30:00Z,28.4073,-96.7122,0.0,1.4,84.0,1.9,'11111222,11111222,11111222' 
TCOON,ioos:station:TCOON:031:1,2017-05-01T07:36:00Z,28.4073,-96.7122,0.0,1.2,86.0,1.9,'11111222,11111222,11111222' 
TCOON,ioos:station:TCOON:031:1,2017-05-01T07:42:00Z,28.4073,-96.7122,0.0,1.0,90.0,1.5,'11111222,11111222,11111222' 
TCOON,ioos:station:TCOON:031:1,2017-05-01T07:48:00Z,28.4073,-96.7122,0.0,1.1,85.0,1.5,'11111222,11111222,11111222' 
TCOON,ioos:station:TCOON:031:1,2017-05-01T07:54:00Z,28.4073,-96.7122,0.0,0.9,82.0,1.5,'11111222,11111222,11111222' 
TCOON,ioos:station:TCOON:031:1,2017-05-01T08:00:00Z,28.4073,-96.7122,0.0,1.0,80.0,1.4,'11111222,11111222,11111222' 
TCOON,ioos:station:TCOON:031:1,2017-05-01T08:06:00Z,28.4073,-96.7122,0.0,1.2,81.0,1.6,'11111222,11111222,11111222' 
TCOON,ioos:station:TCOON:031:1,2017-05-01T08:12:00Z,28.4073,-96.7122,0.0,1.2,78.0,1.6,'11111222,11111222,11111222' 
TCOON,ioos:station:TCOON:031:1,2017-05-01T08:18:00Z,28.4073,-96.7122,0.0,1.7,85.0,2.1,'11111222,11111222,11111222' 
TCOON,ioos:station:TCOON:031:1,2017-05-01T08:24:00Z,28.4073,-96.7122,0.0,1.7,85.0,2.1,'1111122,1111122,1111122' 
TCOON,ioos:station:TCOON:031:1,2017-05-01T08:30:00Z,28.4073,-96.7122,0.0,1.6,84.0,2.1,'11111222,11111222,11111222' 
TCOON,ioos:station:TCOON:031:1,2017-05-01T08:36:00Z,28.4073,-96.7122,0.0,1.7,92.0,2.0,'11111222,11111222,11111222' 
TCOON,ioos:station:TCOON:031:1,2017-05-01T08:42:00Z,28.4073,-96.7122,0.0,1.6,89.0,2.0,'11111222,11111222,11111222' 
TCOON,ioos:station:TCOON:031:1,2017-05-01T08:48:00Z,28.4073,-96.7122,0.0,1.3,90.0,1.9,'11111222,11111222,11111222' 
TCOON,ioos:station:TCOON:031:1,2017-05-01T08:54:00Z,28.4073,-96.7122,0.0,1.5,79.0,1.7,'11111222,11111222,11111222' 
TCOON,ioos:station:TCOON:031:1,2017-05-01T09:00:00Z,28.4073,-96.7122,0.0,1.5,83.0,1.9,'11111222,11111222,11111222' 
TCOON,ioos:station:TCOON:031:1,2017-05-01T09:06:00Z,28.4073,-96.7122,0.0,1.4,95.0,1.8,'11111222,11111222,11111222' 
TCOON,ioos:station:TCOON:031:1,2017-05-01T09:12:00Z,28.4073,-96.7122,0.0,1.7,95.0,2.0,'11111222,11111222,11111222' 
TCOON,ioos:station:TCOON:031:1,2017-05-01T09:18:00Z,28.4073,-96.7122,0.0,0.9,90.0,1.8,'11111222,11111222,11111222' 
TCOON,ioos:station:TCOON:031:1,2017-05-01T09:24:00Z,28.4073,-96.7122,0.0,0.9,90.0,1.8,'1111122,1111122,1111122' 
TCOON,ioos:station:TCOON:031:1,2017-05-01T09:30:00Z,28.4073,-96.7122,0.0,0.9,76.0,1.3,'11111222,11111222,11111222' 
TCOON,ioos:station:TCOON:031:1,2017-05-01T09:36:00Z,28.4073,-96.7122,0.0,1.4,83.0,1.7,'11111222,11111222,11111222' 
TCOON,ioos:station:TCOON:031:1,2017-05-01T09:42:00Z,28.4073,-96.7122,0.0,1.5,90.0,1.9,'11111222,11111222,11111222' 
TCOON,ioos:station:TCOON:031:1,2017-05-01T09:48:00Z,28.4073,-96.7122,0.0,1.2,92.0,1.7,'11111222,11111222,11111222' 
TCOON,ioos:station:TCOON:031:1,2017-05-01T09:54:00Z,28.4073,-96.7122,0.0,1.6,96.0,1.9,'11111222,11111222,11111222' 
TCOON,ioos:station:TCOON:031:1,2017-05-01T10:00:00Z,28.4073,-96.7122,0.0,0.9,86.0,1.9,'11111222,11111222,11111222' 
TCOON,ioos:station:TCOON:031:1,2017-05-01T10:06:00Z,28.4073,-96.7122,0.0,1.4,87.0,1.6,'11111222,11111222,11111222' 
TCOON,ioos:station:TCOON:031:1,2017-05-01T10:12:00Z,28.4073,-96.7122,0.0,1.8,109.0,2.3,'11111222,11111222,11111222' 
TCOON,ioos:station:TCOON:031:1,2017-05-01T10:18:00Z,28.4073,-96.7122,0.0,1.7,107.0,2.2,'11111222,11111222,11111222' 
TCOON,ioos:station:TCOON:031:1,2017-05-01T10:24:00Z,28.4073,-96.7122,0.0,1.7,107.0,2.2,'1111122,1111122,1111122' 
TCOON,ioos:station:TCOON:031:1,2017-05-01T10:30:00Z,28.4073,-96.7122,0.0,1.7,97.0,2.1,'11111222,11111222,11111222' 
TCOON,ioos:station:TCOON:031:1,2017-05-01T10:36:00Z,28.4073,-96.7122,0.0,1.9,105.0,2.1,'11111222,11111222,11111222' 
TCOON,ioos:station:TCOON:031:1,2017-05-01T10:42:00Z,28.4073,-96.7122,0.0,1.8,98.0,2.2,'11111222,11111222,11111222' 
TCOON,ioos:station:TCOON:031:1,2017-05-01T10:48:00Z,28.4073,-96.7122,0.0,1.5,112.0,1.9,'11111222,11111222,11111222' 
TCOON,ioos:station:TCOON:031:1,2017-05-01T10:54:00Z,28.4073,-96.7122,0.0,1.8,117.0,2.2,'11111222,11111222,11111222' 
TCOON,ioos:station:TCOON:031:1,2017-05-01T11:00:00Z,28.4073,-96.7122,0.0,2.6,126.0,3.2,'11111222,11111222,11111222' 
TCOON,ioos:station:TCOON:031:1,2017-05-01T11:06:00Z,28.4073,-96.7122,0.0,2.4,122.0,3.1,'11111222,11111222,11111222' 
TCOON,ioos:station:TCOON:031:1,2017-05-01T11:12:00Z,28.4073,-96.7122,0.0,2.1,115.0,2.9,'11111222,11111222,11111222' 
TCOON,ioos:station:TCOON:031:1,2017-05-01T11:18:00Z,28.4073,-96.7122,0.0,1.9,114.0,2.6,'11111222,11111222,11111222' 
TCOON,ioos:station:TCOON:031:1,2017-05-01T11:24:00Z,28.4073,-96.7122,0.0,1.9,114.0,2.6,'1111122,1111122,1111122' 
TCOON,ioos:station:TCOON:031:1,2017-05-01T11:30:00Z,28.4073,-96.7122,0.0,2.7,127.0,3.3,'11111222,11111222,11111222' 
TCOON,ioos:station:TCOON:031:1,2017-05-01T11:36:00Z,28.4073,-96.7122,0.0,3.0,125.0,3.3,'11111222,11111222,11111222' 
TCOON,ioos:station:TCOON:031:1,2017-05-01T11:42:00Z,28.4073,-96.7122,0.0,3.1,128.0,3.5,'11111222,11111222,11111222' 
TCOON,ioos:station:TCOON:031:1,2017-05-01T11:48:00Z,28.4073,-96.7122,0.0,3.3,129.0,3.8,'11111222,11111222,11111222' 
TCOON,ioos:station:TCOON:031:1,2017-05-01T11:54:00Z,28.4073,-96.7122,0.0,3.4,127.0,3.9,'11111222,11111222,11111222' 
TCOON,ioos:station:TCOON:031:1,2017-05-01T12:00:00Z,28.4073,-96.7122,0.0,3.7,128.0,4.4,'11111222,11111222,11111222' 
TCOON,ioos:station:TCOON:031:1,2017-05-01T12:06:00Z,28.4073,-96.7122,0.0,3.5,125.0,4.5,'11111222,11111222,11111222' 
TCOON,ioos:station:TCOON:031:1,2017-05-01T12:12:00Z,28.4073,-96.7122,0.0,4.0,138.0,6.1,'11111222,11111222,11111222' 
TCOON,ioos:station:TCOON:031:1,2017-05-01T12:18:00Z,28.4073,-96.7122,0.0,5.4,150.0,6.8,'11111222,11111222,11111222' 
TCOON,ioos:station:TCOON:031:1,2017-05-01T12:24:00Z,28.4073,-96.7122,0.0,5.4,150.0,6.8,'1111122,1111122,1111122' 
TCOON,ioos:station:TCOON:031:1,2017-05-01T12:30:00Z,28.4073,-96.7122,0.0,6.2,154.0,6.8,'11111222,11111222,11111222' 
TCOON,ioos:station:TCOON:031:1,2017-05-01T12:36:00Z,28.4073,-96.7122,0.0,6.6,151.0,7.4,'11111222,11111222,11111222' 
TCOON,ioos:station:TCOON:031:1,2017-05-01T12:42:00Z,28.4073,-96.7122,0.0,6.2,148.0,7.5,'11111222,11111222,11111222' 
TCOON,ioos:station:TCOON:031:1,2017-05-01T12:48:00Z,28.4073,-96.7122,0.0,6.6,148.0,7.4,'11111222,11111222,11111222' 
TCOON,ioos:station:TCOON:031:1,2017-05-01T12:54:00Z,28.4073,-96.7122,0.0,6.9,151.0,7.7,'11111222,11111222,11111222' 
TCOON,ioos:station:TCOON:031:1,2017-05-01T13:00:00Z,28.4073,-96.7122,0.0,6.5,148.0,7.6,'11111222,11111222,11111222' 
TCOON,ioos:station:TCOON:031:1,2017-05-01T13:06:00Z,28.4073,-96.7122,0.0,6.8,151.0,7.5,'11111222,11111222,11111222' 
TCOON,ioos:station:TCOON:031:1,2017-05-01T13:12:00Z,28.4073,-96.7122,0.0,6.7,160.0,7.6,'11111222,11111222,11111222' 
TCOON,ioos:station:TCOON:031:1,2017-05-01T13:18:00Z,28.4073,-96.7122,0.0,6.7,160.0,7.6,'1111122,1111122,1111122' 
TCOON,ioos:station:TCOON:031:1,2017-05-01T13:24:00Z,28.4073,-96.7122,0.0,7.0,161.0,7.6,'11111222,11111222,11111222' 
TCOON,ioos:station:TCOON:031:1,2017-05-01T13:30:00Z,28.4073,-96.7122,0.0,6.5,157.0,7.7,'11111222,11111222,11111222' 
TCOON,ioos:station:TCOON:031:1,2017-05-01T13:36:00Z,28.4073,-96.7122,0.0,6.6,159.0,7.5,'11111222,11111222,11111222' 
TCOON,ioos:station:TCOON:031:1,2017-05-01T13:42:00Z,28.4073,-96.7122,0.0,7.2,163.0,8.2,'11111222,11111222,11111222' 
TCOON,ioos:station:TCOON:031:1,2017-05-01T13:48:00Z,28.4073,-96.7122,0.0,6.4,158.0,8.2,'11111222,11111222,11111222' 
TCOON,ioos:station:TCOON:031:1,2017-05-01T13:54:00Z,28.4073,-96.7122,0.0,6.7,166.0,7.8,'11111222,11111222,11111222' 
TCOON,ioos:station:TCOON:031:1,2017-05-01T14:00:00Z,28.4073,-96.7122,0.0,7.2,171.0,8.1,'11111222,11111222,11111222' 
TCOON,ioos:station:TCOON:031:1,2017-05-01T14:06:00Z,28.4073,-96.7122,0.0,6.6,164.0,8.8,'11111222,11111222,11111222' 
TCOON,ioos:station:TCOON:031:1,2017-05-01T14:12:00Z,28.4073,-96.7122,0.0,7.2,164.0,8.4,'11111222,11111222,11111222' 
TCOON,ioos:station:TCOON:031:1,2017-05-01T14:18:00Z,28.4073,-96.7122,0.0,7.2,164.0,8.4,'1111122,1111122,1111122' 
TCOON,ioos:station:TCOON:031:1,2017-05-01T14:24:00Z,28.4073,-96.7122,0.0,7.1,169.0,8.3,'11111222,11111222,11111222' 
TCOON,ioos:station:TCOON:031:1,2017-05-01T14:30:00Z,28.4073,-96.7122,0.0,7.3,164.0,8.0,'11111222,11111222,11111222' 
TCOON,ioos:station:TCOON:031:1,2017-05-01T14:36:00Z,28.4073,-96.7122,0.0,7.0,164.0,7.9,'11111222,11111222,11111222' 
TCOON,ioos:station:TCOON:031:1,2017-05-01T14:42:00Z,28.4073,-96.7122,0.0,7.3,168.0,8.0,'11111222,11111222,11111222' 
TCOON,ioos:station:TCOON:031:1,2017-05-01T14:48:00Z,28.4073,-96.7122,0.0,7.4,173.0,8.3,'11111222,11111222,11111222' 
TCOON,ioos:station:TCOON:031:1,2017-05-01T14:54:00Z,28.4073,-96.7122,0.0,7.0,173.0,8.3,'11111222,11111222,11111222' 
TCOON,ioos:station:TCOON:031:1,2017-05-01T15:00:00Z,28.4073,-96.7122,0.0,7.3,170.0,8.4,'11111222,11111222,11111222' 
TCOON,ioos:station:TCOON:031:1,2017-05-01T15:06:00Z,28.4073,-96.7122,0.0,7.3,163.0,8.6,'11111222,11111222,11111222' 
TCOON,ioos:station:TCOON:031:1,2017-05-01T15:12:00Z,28.4073,-96.7122,0.0,6.6,172.0,8.4,'11111222,11111222,11111222' 
TCOON,ioos:station:TCOON:031:1,2017-05-01T15:18:00Z,28.4073,-96.7122,0.0,6.6,172.0,8.4,'1111122,1111122,1111122' 
TCOON,ioos:station:TCOON:031:1,2017-05-01T15:24:00Z,28.4073,-96.7122,0.0,6.9,170.0,8.2,'11111222,11111222,11111222' 
TCOON,ioos:station:TCOON:031:1,2017-05-01T15:30:00Z,28.4073,-96.7122,0.0,6.7,175.0,8.2,'11111222,11111222,11111222' 
TCOON,ioos:station:TCOON:031:1,2017-05-01T15:36:00Z,28.4073,-96.7122,0.0,6.7,177.0,8.1,'11111222,11111222,11111222' 
TCOON,ioos:station:TCOON:031:1,2017-05-01T15:42:00Z,28.4073,-96.7122,0.0,7.1,170.0,7.8,'11111222,11111222,11111222' 
TCOON,ioos:station:TCOON:031:1,2017-05-01T15:48:00Z,28.4073,-96.7122,0.0,6.8,174.0,7.5,'11111222,11111222,11111222' 
TCOON,ioos:station:TCOON:031:1,2017-05-01T15:54:00Z,28.4073,-96.7122,0.0,6.6,176.0,7.4,'11111222,11111222,11111222' 
TCOON,ioos:station:TCOON:031:1,2017-05-01T16:00:00Z,28.4073,-96.7122,0.0,7.3,178.0,8.0,'11111222,11111222,11111222' 
TCOON,ioos:station:TCOON:031:1,2017-05-01T16:06:00Z,28.4073,-96.7122,0.0,7.7,178.0,8.4,'11111222,11111222,11111222' 
TCOON,ioos:station:TCOON:031:1,2017-05-01T16:12:00Z,28.4073,-96.7122,0.0,6.8,175.0,7.7,'11111222,11111222,11111222' 
TCOON,ioos:station:TCOON:031:1,2017-05-01T16:18:00Z,28.4073,-96.7122,0.0,6.8,175.0,7.7,'1111122,1111122,1111122' 
TCOON,ioos:station:TCOON:031:1,2017-05-01T16:24:00Z,28.4073,-96.7122,0.0,6.6,171.0,7.5,'11111222,11111222,11111222' 
TCOON,ioos:station:TCOON:031:1,2017-05-01T16:30:00Z,28.4073,-96.7122,0.0,6.4,169.0,7.5,'11111222,11111222,11111222' 
TCOON,ioos:station:TCOON:031:1,2017-05-01T16:36:00Z,28.4073,-96.7122,0.0,6.8,167.0,7.6,'11111222,11111222,11111222' 
TCOON,ioos:station:TCOON:031:1,2017-05-01T16:42:00Z,28.4073,-96.7122,0.0,6.6,170.0,7.4,'11111222,11111222,11111222' 
TCOON,ioos:station:TCOON:031:1,2017-05-01T16:48:00Z,28.4073,-96.7122,0.0,6.9,169.0,7.5,'11111222,11111222,11111222' 
TCOON,ioos:station:TCOON:031:1,2017-05-01T16:54:00Z,28.4073,-96.7122,0.0,6.2,168.0,7.3,'11111222,11111222,11111222' 
TCOON,ioos:station:TCOON:031:1,2017-05-01T17:00:00Z,28.4073,-96.7122,0.0,6.0,165.0,7.6,'11111222,11111222,11111222' 
TCOON,ioos:station:TCOON:031:1,2017-05-01T17:06:00Z,28.4073,-96.7122,0.0,6.2,161.0,7.2,'11111222,11111222,11111222' 
TCOON,ioos:station:TCOON:031:1,2017-05-01T17:12:00Z,28.4073,-96.7122,0.0,5.7,166.0,6.7,'11111222,11111222,11111222' 
TCOON,ioos:station:TCOON:031:1,2017-05-01T17:18:00Z,28.4073,-96.7122,0.0,5.7,166.0,6.7,'1111122,1111122,1111122' 
TCOON,ioos:station:TCOON:031:1,2017-05-01T17:24:00Z,28.4073,-96.7122,0.0,6.4,159.0,7.1,'11111222,11111222,11111222' 
TCOON,ioos:station:TCOON:031:1,2017-05-01T17:30:00Z,28.4073,-96.7122,0.0,6.1,155.0,6.9,'11111222,11111222,11111222' 
TCOON,ioos:station:TCOON:031:1,2017-05-01T17:36:00Z,28.4073,-96.7122,0.0,5.9,160.0,6.8,'11111222,11111222,11111222' 
TCOON,ioos:station:TCOON:031:1,2017-05-01T17:42:00Z,28.4073,-96.7122,0.0,6.1,161.0,6.8,'11111222,11111222,11111222' 
TCOON,ioos:station:TCOON:031:1,2017-05-01T17:48:00Z,28.4073,-96.7122,0.0,6.3,161.0,7.1,'11111222,11111222,11111222' 
TCOON,ioos:station:TCOON:031:1,2017-05-01T18:00:00Z,28.4073,-96.7122,0.0,6.0,151.0,6.7,'11111222,11111222,11111222' 
TCOON,ioos:station:TCOON:031:1,2017-05-01T18:06:00Z,28.4073,-96.7122,0.0,5.9,150.0,6.5,'11111222,11111222,11111222' 
TCOON,ioos:station:TCOON:031:1,2017-05-01T18:12:00Z,28.4073,-96.7122,0.0,5.7,149.0,6.6,'11111222,11111222,11111222' 
TCOON,ioos:station:TCOON:031:1,2017-05-01T18:18:00Z,28.4073,-96.7122,0.0,5.7,149.0,6.6,'1111122,1111122,1111122' 
TCOON,ioos:station:TCOON:031:1,2017-05-01T18:24:00Z,28.4073,-96.7122,0.0,5.3,157.0,6.5,'11111222,11111222,11111222' 
TCOON,ioos:station:TCOON:031:1,2017-05-01T18:30:00Z,28.4073,-96.7122,0.0,4.7,153.0,5.9,'11111222,11111222,11111222' 
TCOON,ioos:station:TCOON:031:1,2017-05-01T18:36:00Z,28.4073,-96.7122,0.0,5.0,163.0,5.9,'11111222,11111222,11111222' 
TCOON,ioos:station:TCOON:031:1,2017-05-01T18:42:00Z,28.4073,-96.7122,0.0,5.1,152.0,6.1,'11111222,11111222,11111222' 
TCOON,ioos:station:TCOON:031:1,2017-05-01T18:48:00Z,28.4073,-96.7122,0.0,4.4,158.0,5.4,'11111222,11111222,11111222' 
TCOON,ioos:station:TCOON:031:1,2017-05-01T18:54:00Z,28.4073,-96.7122,0.0,4.3,166.0,5.1,'11111222,11111222,11111222' 
TCOON,ioos:station:TCOON:031:1,2017-05-01T19:00:00Z,28.4073,-96.7122,0.0,3.7,166.0,4.6,'11111222,11111222,11111222' 
TCOON,ioos:station:TCOON:031:1,2017-05-01T19:06:00Z,28.4073,-96.7122,0.0,3.4,169.0,4.4,'11111222,11111222,11111222' 
TCOON,ioos:station:TCOON:031:1,2017-05-01T19:12:00Z,28.4073,-96.7122,0.0,4.2,156.0,5.0,'11111222,11111222,11111222' 
TCOON,ioos:station:TCOON:031:1,2017-05-01T19:18:00Z,28.4073,-96.7122,0.0,4.2,156.0,5.0,'1111122,1111122,1111122' 
TCOON,ioos:station:TCOON:031:1,2017-05-01T19:24:00Z,28.4073,-96.7122,0.0,4.0,158.0,4.4,'11111222,11111222,11111222' 
TCOON,ioos:station:TCOON:031:1,2017-05-01T19:30:00Z,28.4073,-96.7122,0.0,3.6,158.0,4.8,'11111222,11111222,11111222' 
TCOON,ioos:station:TCOON:031:1,2017-05-01T19:36:00Z,28.4073,-96.7122,0.0,3.8,167.0,4.4,'11111222,11111222,11111222' 
TCOON,ioos:station:TCOON:031:1,2017-05-01T19:42:00Z,28.4073,-96.7122,0.0,5.1,153.0,5.7,'11111222,11111222,11111222' 
TCOON,ioos:station:TCOON:031:1,2017-05-01T19:48:00Z,28.4073,-96.7122,0.0,5.3,155.0,6.0,'11111222,11111222,11111222' 
TCOON,ioos:station:TCOON:031:1,2017-05-01T19:54:00Z,28.4073,-96.7122,0.0,6.0,148.0,6.7,'11111222,11111222,11111222' 
TCOON,ioos:station:TCOON:031:1,2017-05-01T20:00:00Z,28.4073,-96.7122,0.0,5.8,152.0,6.4,'11111222,11111222,11111222' 
TCOON,ioos:station:TCOON:031:1,2017-05-01T20:12:00Z,28.4073,-96.7122,0.0,5.4,150.0,6.1,'11111222,11111222,11111222' 
TCOON,ioos:station:TCOON:031:1,2017-05-01T20:18:00Z,28.4073,-96.7122,0.0,5.4,150.0,6.1,'1111122,1111122,1111122' 
TCOON,ioos:station:TCOON:031:1,2017-05-01T20:24:00Z,28.4073,-96.7122,0.0,5.2,153.0,5.9,'11111222,11111222,11111222' 
TCOON,ioos:station:TCOON:031:1,2017-05-01T20:30:00Z,28.4073,-96.7122,0.0,5.5,149.0,6.4,'11111222,11111222,11111222' 
TCOON,ioos:station:TCOON:031:1,2017-05-01T20:36:00Z,28.4073,-96.7122,0.0,5.7,148.0,6.4,'11111222,11111222,11111222' 